| time (UTC) | temp C | wind direction | speed KPH | gust KPH | rain 1hr cm | rain 24hr cm | rain mn cm | humidity % | barometer mb |
| 20260507124606 | 7 | 327 | 6.4 | 17.7 | 0.00 | 1.24 | 0.00 | 53 | 1010.6 |
| 20260507123056 | 7 | 299 | 4.8 | 12.9 | 0.00 | 1.24 | 0.00 | 50 | 1010.6 |
| 20260507121559 | 7 | 349 | 1.6 | 16.1 | 0.00 | 1.24 | 0.00 | 53 | 1010.6 |
| 20260507114610 | 7 | 309 | 4.8 | 14.5 | 0.00 | 1.24 | 0.00 | 54 | 1010.3 |
| 20260507113055 | 6 | 337 | 3.2 | 9.7 | 0.00 | 1.24 | 0.00 | 58 | 1010.3 |
| 20260507111558 | 6 | 0 | 1.6 | 17.7 | 0.00 | 1.24 | 0.00 | 60 | 1010.4 |
| 20260507110054 | 5 | 0 | 1.6 | 6.4 | 0.00 | 1.24 | 0.00 | 62 | 1010.1 |
| 20260507104604 | 6 | 37 | 1.6 | 9.7 | 0.00 | 1.24 | 0.00 | 64 | 1010.1 |
| 20260507103100 | 6 | 57 | 3.2 | 6.4 | 0.00 | 1.24 | 0.00 | 66 | 1010.0 |
| 20260507101603 | 6 | 108 | 3.2 | 24.1 | 0.00 | 1.24 | 0.00 | 67 | 1009.6 |
| 20260507100052 | 6 | 319 | 0.0 | 14.5 | 0.00 | 1.24 | 0.00 | 71 | 1009.5 |
| 20260507094558 | 7 | 299 | 3.2 | 17.7 | 0.00 | 1.24 | 0.00 | 72 | 1009.1 |
| 20260507093054 | 7 | 315 | 1.6 | 8.0 | 0.00 | 1.24 | 0.00 | 60 | 1009.1 |
| 20260507091553 | 7 | 0 | 0.0 | 4.8 | 0.00 | 1.24 | 0.00 | 54 | 1009.1 |
| 20260507084550 | 7 | 287 | 0.0 | 6.4 | 0.00 | 1.24 | 0.00 | 63 | 1009.4 |
| 20260507083056 | 7 | 320 | 3.2 | 6.4 | 0.00 | 1.24 | 0.00 | 65 | 1009.5 |
| 20260507081553 | 7 | 215 | 4.8 | 14.5 | 0.00 | 1.24 | 0.00 | 66 | 1009.5 |
| 20260507080059 | 7 | 304 | 0.0 | 3.2 | 0.00 | 1.24 | 0.00 | 67 | 1009.7 |
| 20260507074555 | 7 | 75 | 0.0 | 8.0 | 0.00 | 1.24 | 0.00 | 68 | 1009.6 |
| 20260507073104 | 7 | 0 | 0.0 | 9.7 | 0.00 | 1.24 | 0.00 | 61 | 1009.9 |
| 20260507071549 | 7 | 264 | 3.2 | 6.4 | 0.00 | 1.24 | 0.00 | 59 | 1009.4 |
| 20260507070101 | 7 | 323 | 1.6 | 6.4 | 0.00 | 1.24 | 0.00 | 47 | 1009.2 |
| 20260507064556 | 7 | 0 | 0.0 | 4.8 | 0.00 | 1.24 | 0.00 | 54 | 1008.6 |
| 20260507063054 | 7 | 235 | 1.6 | 6.4 | 0.00 | 1.24 | 0.00 | 51 | 1008.8 |
| 20260507061554 | 8 | 297 | 3.2 | 6.4 | 0.00 | 1.24 | 0.00 | 37 | 1008.6 |
| 20260507060059 | 8 | 245 | 1.6 | 3.2 | 0.00 | 1.24 | 0.00 | 26 | 1008.7 |
| 20260507054551 | 8 | 276 | 0.0 | 4.8 | 0.00 | 1.24 | 0.00 | 28 | 1008.8 |
| 20260507053058 | 8 | 236 | 1.6 | 6.4 | 0.00 | 1.24 | 0.00 | 35 | 1009.0 |
| 20260507051549 | 8 | 201 | 1.6 | 3.2 | 0.00 | 1.24 | 0.00 | 32 | 1009.0 |
| 20260507050054 | 8 | 261 | 1.6 | 6.4 | 0.00 | 1.24 | 0.00 | 33 | 1009.0 |
| 20260507044600 | 8 | 262 | 1.6 | 4.8 | 0.00 | 1.24 | 0.00 | 36 | 1009.5 |
| 20260507043051 | 8 | 276 | 1.6 | 6.4 | 0.00 | 1.24 | 0.00 | 30 | 1009.3 |
| 20260507041553 | 9 | 266 | 1.6 | 11.3 | 0.00 | 1.24 | 0.00 | 31 | 1009.3 |
| 20260507040056 | 9 | 283 | 3.2 | 8.0 | 0.00 | 1.24 | 0.00 | 43 | 1009.3 |
| 20260507034553 | 9 | 307 | 1.6 | 4.8 | 0.00 | 1.24 | 1.24 | 44 | 1009.0 |
| 20260507033102 | 9 | 228 | 1.6 | 6.4 | 0.00 | 1.24 | 1.24 | 51 | 1008.9 |
| 20260507031601 | 9 | 0 | 0.0 | 3.2 | 0.00 | 1.24 | 1.24 | 52 | 1008.9 |
| 20260507030108 | 9 | 231 | 0.0 | 8.0 | 0.00 | 1.24 | 1.24 | 54 | 1009.1 |
| 20260507024607 | 10 | 245 | 1.6 | 11.3 | 0.00 | 1.24 | 1.24 | 42 | 1009.1 |
| 20260507023052 | 10 | 0 | 0.0 | 4.8 | 0.00 | 1.24 | 1.24 | 47 | 1009.2 |
| 20260507021557 | 10 | 233 | 4.8 | 14.5 | 0.00 | 1.24 | 1.24 | 50 | 1009.0 |
| 20260507020104 | 10 | 248 | 3.2 | 12.9 | 0.00 | 1.24 | 1.24 | 46 | 1009.1 |
| 20260507014559 | 10 | 228 | 1.6 | 6.4 | 0.00 | 1.24 | 1.24 | 47 | 1009.2 |
| 20260507013100 | 10 | 231 | 0.0 | 11.3 | 0.00 | 1.24 | 1.24 | 51 | 1008.9 |
| 20260507011553 | 10 | 219 | 3.2 | 8.0 | 0.00 | 1.24 | 1.24 | 27 | 1008.7 |
| 20260507004556 | 11 | 300 | 1.6 | 9.7 | 0.00 | 1.24 | 1.24 | 25 | 1008.3 |
| 20260507003106 | 11 | 200 | 3.2 | 9.7 | 0.00 | 1.24 | 1.24 | 29 | 1008.1 |
| 20260507001550 | 11 | 281 | 3.2 | 8.0 | 0.00 | 1.24 | 1.24 | 7 | 1008.1 |
| 20260507000057 | 12 | 229 | 1.6 | 12.9 | 0.00 | 1.24 | 1.24 | 100 | 1007.7 |
| 20260506234604 | 12 | 201 | 3.2 | 9.7 | 0.00 | 1.24 | 1.24 | 100 | 1007.5 |
| 20260506233059 | 12 | 225 | 6.4 | 14.5 | 0.05 | 1.24 | 1.24 | 100 | 1007.1 |
| 20260506231556 | 13 | 315 | 1.6 | 12.9 | 0.05 | 1.24 | 1.24 | 100 | 1007.0 |
| 20260506224602 | 13 | 320 | 17.7 | 32.2 | 0.08 | 1.24 | 1.24 | 100 | 1006.1 |
| 20260506223052 | 14 | 0 | 0.0 | 0.0 | 0.03 | 1.19 | 1.19 | 100 | 1005.2 |
| 20260506221552 | 14 | 0 | 0.0 | 0.0 | 0.03 | 1.19 | 1.19 | 100 | 1005.1 |
| 20260506220054 | 14 | 0 | 0.0 | 0.0 | 0.00 | 1.17 | 1.17 | 100 | 1004.9 |
| 20260506214552 | 14 | 0 | 0.0 | 0.0 | 0.00 | 1.17 | 1.17 | 100 | 1005.0 |
| 20260506213053 | 14 | 0 | 0.0 | 0.0 | 0.00 | 1.17 | 1.17 | 100 | 1004.7 |
| 20260506211553 | 15 | 0 | 0.0 | 0.0 | 0.00 | 1.17 | 1.17 | 100 | 1004.7 |
| 20260506210049 | 15 | 0 | 0.0 | 8.0 | 0.00 | 1.17 | 1.17 | 100 | 1004.8 |
| 20260506204553 | 15 | 0 | 0.0 | 6.4 | 0.00 | 1.17 | 1.17 | 100 | 1004.6 |
| 20260506203051 | 15 | 356 | 3.2 | 4.8 | 0.00 | 1.17 | 1.17 | 100 | 1004.8 |
| 20260506201552 | 15 | 283 | 0.0 | 6.4 | 0.00 | 1.17 | 1.17 | 100 | 1004.9 |
| 20260506200050 | 15 | 300 | 1.6 | 4.8 | 0.00 | 1.17 | 1.17 | 100 | 1004.9 |
| 20260506194554 | 15 | 286 | 3.2 | 9.7 | 0.03 | 1.17 | 1.17 | 100 | 1004.9 |
| 20260506193054 | 15 | 315 | 0.0 | 4.8 | 0.03 | 1.17 | 1.17 | 100 | 1005.0 |
| 20260506191553 | 15 | 0 | 1.6 | 8.0 | 0.05 | 1.17 | 1.17 | 100 | 1005.3 |
| 20260506184558 | 15 | 155 | 4.8 | 11.3 | 0.08 | 1.14 | 1.14 | 100 | 1005.6 |
| 20260506183537 | 15 | 131 | 1.6 | 4.8 | 0.10 | 1.14 | 1.14 | 100 | 1005.5 |
| 20260506181604 | 15 | 224 | 0.0 | 6.4 | 0.15 | 1.12 | 1.12 | 100 | 1005.8 |
| 20260506180058 | 15 | 0 | 0.0 | 8.0 | 0.20 | 1.09 | 1.09 | 100 | 1006.0 |
| 20260506174555 | 15 | 139 | 1.6 | 6.4 | 0.25 | 1.07 | 1.07 | 100 | 1006.0 |
| 20260506173124 | 15 | 131 | 0.0 | 4.8 | 0.30 | 1.04 | 1.04 | 100 | 1006.1 |
| 20260506171549 | 15 | 239 | 1.6 | 9.7 | 0.33 | 0.97 | 0.97 | 100 | 1006.0 |
| 20260506170053 | 15 | 232 | 1.6 | 12.9 | 0.33 | 0.86 | 0.86 | 100 | 1006.5 |
| 20260506164556 | 15 | 0 | 0.0 | 3.2 | 0.33 | 0.81 | 0.81 | 100 | 1006.6 |
| 20260506163107 | 15 | 0 | 0.0 | 9.7 | 0.30 | 0.74 | 0.74 | 100 | 1006.8 |
| 20260506161624 | 15 | 232 | 0.0 | 1.6 | 0.28 | 0.64 | 0.64 | 100 | 1007.2 |
| 20260506154555 | 15 | 239 | 0.0 | 9.7 | 0.23 | 0.48 | 0.48 | 100 | 1007.2 |
| 20260506153058 | 15 | 326 | 0.0 | 4.8 | 0.18 | 0.41 | 0.41 | 100 | 1007.3 |
| 20260506151558 | 15 | 0 | 0.0 | 4.8 | 0.20 | 0.36 | 0.36 | 100 | 1007.4 |
| 20260506150052 | 15 | 0 | 0.0 | 0.0 | 0.20 | 0.30 | 0.30 | 100 | 1007.5 |
| 20260506144551 | 15 | 0 | 0.0 | 3.2 | 0.20 | 0.25 | 0.25 | 100 | 1007.6 |
| 20260506143053 | 15 | 360 | 0.0 | 3.2 | 0.23 | 0.23 | 0.23 | 100 | 1007.6 |
| 20260506141556 | 15 | 0 | 0.0 | 4.8 | 0.15 | 0.15 | 0.15 | 100 | 1007.9 |
| 20260506140053 | 15 | 339 | 1.6 | 4.8 | 0.10 | 0.10 | 0.10 | 100 | 1008.1 |
| 20260506134549 | 16 | 248 | 1.6 | 11.3 | 0.05 | 0.05 | 0.05 | 43 | 1008.0 |
| 20260506133053 | 16 | 212 | 1.6 | 8.0 | 0.00 | 0.00 | 0.00 | 62 | 1007.7 |
| 20260506131552 | 17 | 162 | 3.2 | 16.1 | 0.00 | 0.00 | 0.00 | 72 | 1007.3 |
| 20260506130103 | 17 | 217 | 4.8 | 11.3 | 0.00 | 0.00 | 0.00 | 71 | 1007.3 |